Location: Campillo
(40.8621°N, 4.2488°W)
Time: 16:23:41
(UTC+00:00)

Cosmos 1777 Rocket - Pass Details

Date: 26 September 2021
Orbit: 759 x 775 km, 74.0° (Epoch: 23 October)

Event Time Altitude Azimuth Distance (km) Brightness Sun altitude
Rises 21:01:21 0° 257° (WSW) 3,230 7.8 -32.5°
Reaches altitude 10° 21:05:42 10° 291° (WNW) 2,305 7.3 -33.2°
Maximum altitude 21:07:15 11° 309° (NW) 2,220 7.2 -33.4°
Drops below altitude 10° 21:08:48 10° 326° (NW) 2,305 7.2 -33.7°
Sets 21:13:11 0° 1° (N) 3,233 7.6 -34.4°
